User: anonymous   Login
Location: Unspecified
(0.0000°N, 0.0000°E)
Time: 10:06:05
(UTC+00:00)
Language:

STARLINK-34010 - Orbit

View from above orbital plane
View from above orbital plane
View from above satellite
View from above satellite

Ground track
Ground track

The orbit is defined by the following mean orbital elements,

1 63848U          26145.33020125 +.00000000 +00000-0 +39385-3 0 00007
2 63848  42.9997   5.0497 0000375 287.2544  72.8266 15.27592842    09
Epoch (UTC): 25 May 2026 07:55:29
Eccentricity: 0.0000375
inclination: 42.9997°
perigee height: 483 km
apogee height: 483 km
right ascension of ascending node: 5.0497°
argument of perigee: 287.2544°
revolutions per day: 15.27592842
mean anomaly at epoch: 72.8266°

The dashed part of the orbit path shows where the satellite is in the earth's shadow,  

DLR